This is the latest recevied weather packets stored in our database for station/object N5SRF. If no packets are shown the sender has not sent any weather packets the latest 1 day(s).
| Time | Temp. | Humidity | Pressure | Rain* | Wind** | Luminosity | Snow |
|---|---|---|---|---|---|---|---|
| 1777976190 | 20° C | 97% | 1012.5 hPa | 0 mm | 0 m/s | 0 W/m² | - |
| 1777975886 | 20° C | 97% | 1012.5 hPa | 0 mm | 0 m/s | 0 W/m² | - |
| 1777975582 | 20° C | 97% | 1012.6 hPa | 0 mm | 0.45 m/s, 192° | 0 W/m² | - |
| 1777975279 | 20° C | 97% | 1012.4 hPa | 0 mm | 0 m/s | 0 W/m² | - |
| 1777974975 | 20° C | 97% | 1012.4 hPa | 0 mm | 0 m/s | 0 W/m² | - |
| 1777974672 | 20° C | 96% | 1012.6 hPa | 0 mm | 0.45 m/s, 196° | 0 W/m² | - |
| 1777974368 | 20° C | 96% | 1012.5 hPa | 0 mm | 0.45 m/s, 192° | 0 W/m² | - |
| 1777974065 | 20° C | 96% | 1012.7 hPa | 0 mm | 0.45 m/s, 161° | 0 W/m² | - |
| 1777973761 | 20° C | 96% | 1012.6 hPa | 0 mm | 0.89 m/s, 151° | 0 W/m² | - |
| 1777973458 | 20° C | 96% | 1012.9 hPa | 0 mm | 0.45 m/s, 193° | 0 W/m² | - |
| 1777973156 | 20° C | 96% | 1012.9 hPa | 0 mm | 0.45 m/s, 146° | 0 W/m² | - |
| 1777972855 | 20° C | 96% | 1012.9 hPa | 0 mm | 1.34 m/s, 142° | 0 W/m² | - |
| 1777972550 | 20° C | 96% | 1013.2 hPa | 0 mm | 0 m/s | 0 W/m² | - |
| 1777972249 | 20° C | 96% | 1012.9 hPa | 0 mm | 0 m/s | 0 W/m² | - |
| 1777971947 | 20° C | 96% | 1013.2 hPa | 0 mm | 0 m/s | 0 W/m² | - |
| 1777971644 | 20° C | 96% | 1013.2 hPa | 0 mm | 0 m/s | 0 W/m² | - |
| 1777971342 | 20° C | 96% | 1013 hPa | 0 mm | 0.45 m/s, 163° | 0 W/m² | - |
| 1777971040 | 20° C | 95% | 1013 hPa | 0 mm | 0 m/s | 0 W/m² | - |
| 1777970738 | 20° C | 95% | 1013 hPa | 0 mm | 0.45 m/s, 138° | 0 W/m² | - |
| 1777970436 | 20° C | 95% | 1013.1 hPa | 0 mm | 1.34 m/s, 170° | 0 W/m² | - |
| 1777970132 | 20° C | 95% | 1013.3 hPa | 0 mm | 0.89 m/s, 123° | 0 W/m² | - |
| 1777969829 | 20° C | 95% | 1013.2 hPa | 0 mm | 0.45 m/s, 188° | 0 W/m² | - |
| 1777969525 | 20° C | 95% | 1013.3 hPa | 0 mm | 0.45 m/s, 155° | 0 W/m² | - |
| 1777969222 | 20° C | 95% | 1013.4 hPa | 0 mm | 0 m/s | 0 W/m² | - |
| 1777968918 | 20° C | 95% | 1013.4 hPa | 0 mm | 0.45 m/s, 174° | 0 W/m² | - |
* Rain latest hour (hover to see other rain measurements)
** Current wind speed in m/s (hover to see current wind gust speed)